Find Starlink 38236

NORAD ID: 100312 Int'l Des: 2026-184 Owner: SPXS Country: US Constellation: starlink operational

当前视图

正在加载3D地球...

About Starlink 38236

Starlink 38236 (NORAD 100312) is a starlink constellation satellite launched Aug 12, 2026 by SPXS of US. with a mass of 575.00 kg.

即将过境

Passes for default location (London). Set your location on the main map for personalized predictions.

高度历史

Loading altitude history...

两行轨道根数

1 A0312U 26184M 26253.95333970 -.00830176 00000-0 -19708-1 0 9997
2 A0312 97.2835 119.1519 0002269 99.7496 260.4009 15.44362881 5897
Epoch: Sep 10, 2026 • Age: 43 hours

当前状态

高度 445.6 km
远地点 / 近地点 N/A
速度 7.65 km/s
星下点 30.13°N, 50.09°E
发射日期 Aug 12, 2026
运行时间 31 days
类型 internet

技术详情

分类 Payload
质量 575.00 kg
干质量 530.00 kg
总质量 575.00 kg
长度 0.30 m
直径 4.10 m
跨度 29.00 m
形状 Box + pan
制造商 SPXS
平台类型 Starlink V2MO
阶段状态 In Orbit
所有者/国家 SPXS/US

Most Searched